DELTA 1 DEB, 13535

Orbit data source: Space-Track

DELTA 1 DEB, 13535 is space debris in SSO originally from a launch on Thu, 29 Jul 1976 UTC launched from the Air Force Western Test Range (AFWTR). Debris objects in space refer to the collection of defunct objects orbiting the Earth. Examples of debris include non-operational satellites, rocket bodies, and fragments generated from explosions, collisions, or faulty payload assembly.

Loading next visibility...
Identifier
13535, 1976-077EH
Orbit
SSO
Country
Flag of USUS
Related business
Manufacturer
Unknown
Mission
Spacecraft
Bus & Motor
Unknown
Mass
Unknown
Launch date (UTC)
1976-07-29 (50 years ago)
Launch vehicle
Unknown
Launch site
Air Force Western Test Range (AFWTR)
Object type
Payload
Rocket body
Debris
Shape & HBR
Unknown shape, 0.2 m
Radar Cross Section
Small (<0.1 m²)

Expand to show TLE details & history
Last TLE update: 16 hours ago

TLE from 16 hours ago
0 DELTA 1 DEB
1 13535U 76077EH  26104.20980978 -.00000029  00000-0  10673-3 0  9992
2 13535 101.7618  78.4908 0023562  28.7326 347.4388 12.39102387140878
Epoch: 2026-04-14T05:02Z
TLE epoch observation values (Epoch: 2026-04-14T05:02:07.564Z)
Latitude
15.74861°
Longitude
157.22025°
Altitude
1,494.167 km
Speed
7.126 km/s
True Right ascension
05h 00m 33s
True Declination
15° 40' 03"
Sunlit
Object was in daylight at epoch
Visualization orbit readout
Latitude
Unknown
Longitude
Unknown
Altitude
Unknown
Speed
Unknown
Apparent Right ascension
Unknown
Apparent Declination
Unknown
Sunlit
N/A
Visualization observer readout
Local Sidereal Time
03:31:52
Azimuth
Unknown
Elevation
Unknown
Doppler factor
Unknown
Orbital elements
Apogee altitude
1,526.554 km
Perigee altitude
1,489.391 km
Semi-major axis
7,886.109 km
Eccentricity
0.00236
Inclination
101.7618°
RAAN
78.4908°
Arg. of periapsis
28.7326°
True anomaly
347.37991°
Mean anomaly
347.4388°
Eccentric anomaly
347.40937°
Mean motion
3.0992 °/min
Orbital period
116.16 mins
BSTAR
0.00010673
Loading maneuver chart data...
Computing Atmospheric mass density...
Loading historical data...
Loading historical data...
Loading historical data...
Loading historical data...
Loading historical data...
Loading historical data...
Loading historical data...

Documentation

Showing up to 5 results
|